ECMWFFLT1_sfc_dewp_108.txt.gz
Dewpoint
64 64 65 67 58 60 60 61 63 63 63 63 62 61 61 65 68 71 70 72 73 73 73 75 75 74 74 74 75 75 75 76 75 75 75 75 75 76 75 75 73 75 73 71 72 77 75 76 75 72 74 74 75 76 77 78 77 73 77 75 78 80 78
63 62 63 63 62 61 62 63 64 65 63 63 62 65 61 67 69 69 70 71 72 72 72 73 74 74 74 75 74 75 75 75 76 77 75 74 75 76 75 74 77 75 76 75 79 75 75 70 74 74 74 74 73 77 75 77 78 78 76 77 77 77 77
65 65 63 64 61 62 64 63 63 62 63 62 62 62 62 68 69 71 72 71 72 73 71 71 73 73 73 74 75 75 74 75 75 74 73 73 74 75 76 77 77 75 73 75 78 74 74 72 76 77 75 73 71 75 77 77 78 76 77 79 77 75 78
64 65 66 68 66 66 64 64 63 64 62 62 63 63 66 70 68 71 71 71 71 71 71 70 70 70 71 73 73 74 74 75 74 73 72 73 73 73 74 77 74 73 74 73 72 72 73 73 72 75 74 75 75 74 74 75 74 76 77 79 78 77 79
66 65 65 66 68 66 66 64 66 65 63 62 65 71 70 68 68 69 70 70 70 70 68 68 68 69 70 71 70 70 71 71 72 72 71 72 73 72 73 71 72 71 75 73 75 76 76 76 72 73 74 77 74 75 75 75 75 77 77 78 78 76 77
64 65 65 65 67 71 68 66 65 66 64 62 65 68 67 65 67 64 67 69 70 68 69 70 68 69 68 69 68 68 70 72 74 73 71 74 73 70 70 71 70 71 70 73 71 71 73 73 73 73 72 71 71 72 73 73 73 73 76 77 77 75 72
62 63 64 65 68 70 72 73 72 69 65 68 66 67 68 68 69 71 65 65 64 67 65 65 65 66 68 68 69 70 70 69 70 69 69 69 72 72 71 71 72 70 71 73 71 72 72 73 73 73 72 71 72 69 74 76 75 75 77 78 78 77 77
63 62 63 64 67 68 71 73 73 72 71 71 70 70 71 72 72 72 71 71 67 64 65 64 63 66 69 69 67 66 67 68 68 69 69 67 67 70 70 69 72 72 71 69 71 71 70 72 69 72 72 71 71 75 71 76 77 72 74 76 77 75 72
61 63 63 64 65 66 69 70 72 73 72 70 72 72 72 72 72 72 72 71 71 72 69 68 65 65 69 68 68 69 67 67 67 68 67 66 65 65 65 68 69 70 69 68 69 70 71 71 69 74 74 72 74 75 75 77 74 75 75 75 76 75 72
66 65 64 63 65 66 70 70 71 72 72 73 73 72 72 72 72 71 73 73 71 71 73 69 68 70 73 71 67 65 65 66 66 66 66 65 64 64 64 64 66 68 66 68 67 67 71 71 71 73 75 73 75 75 75 75 75 75 73 74 75 75 75
66 68 67 66 65 66 69 69 69 70 70 71 72 73 73 71 70 71 71 70 70 73 73 74 73 72 70 71 72 71 65 63 63 64 64 64 63 62 62 63 62 65 66 66 67 68 69 72 72 74 76 70 72 74 75 74 75 75 72 73 74 75 74
65 66 67 68 66 66 68 69 69 70 70 71 71 72 73 73 73 74 72 71 70 72 73 74 74 75 74 73 70 73 69 66 64 62 62 62 62 61 61 61 61 62 63 65 66 68 68 69 70 73 75 75 73 75 76 76 75 75 74 70 70 73 73
65 66 67 67 68 67 69 70 68 69 70 70 70 70 71 71 72 72 72 72 72 72 72 74 74 76 74 70 68 71 72 71 72 73 65 63 62 62 62 61 60 61 61 63 65 65 65 67 70 72 74 75 73 72 75 75 73 77 76 74 72 72 73
66 65 66 67 67 67 70 69 69 68 69 69 69 70 69 70 71 71 71 70 71 71 71 73 73 74 73 72 72 72 72 72 74 74 74 72 74 69 63 62 61 64 64 65 65 64 64 63 68 69 71 73 73 74 74 76 74 76 77 76 74 73 72
65 65 65 65 68 68 68 68 69 68 69 68 69 70 70 69 69 71 71 71 71 71 71 71 71 73 74 74 74 74 75 76 76 74 73 72 75 74 71 69 68 70 70 72 66 62 63 63 62 67 69 70 73 73 72 71 71 72 73 75 74 74 71
64 65 65 66 67 66 68 67 68 69 70 70 69 70 70 70 70 71 71 71 71 71 72 71 71 71 72 72 73 74 75 76 75 74 75 74 74 73 73 70 69 68 71 70 70 72 72 73 68 63 65 70 71 71 69 69 70 75 76 75 75 75 71
64 65 65 65 66 66 66 68 67 67 68 69 71 70 71 71 72 71 71 72 73 73 72 73 72 72 71 72 73 74 74 75 74 74 74 74 73 73 73 72 71 71 72 72 71 74 76 72 67 64 63 64 69 70 69 69 70 72 68 69 72 74 73
65 65 66 66 66 66 66 68 67 67 67 69 70 70 71 72 72 72 72 72 72 73 74 74 73 72 72 72 73 73 73 73 73 73 73 73 72 72 72 71 72 72 71 70 71 74 69 69 70 72 67 63 63 66 70 69 67 63 65 67 68 73 73
65 65 65 66 66 66 66 65 66 67 68 68 69 69 71 71 71 70 70 70 71 71 72 72 72 73 72 73 73 73 74 73 73 73 73 72 72 72 72 71 71 71 71 72 73 74 74 74 72 71 71 67 68 69 69 68 63 63 65 66 67 69 76
65 64 63 64 64 64 65 67 66 67 67 67 68 69 70 69 69 69 70 70 70 70 70 70 70 70 70 71 72 72 72 73 73 73 73 72 73 73 73 71 71 71 73 74 75 74 73 74 73 73 73 71 72 70 69 68 64 62 63 64 65 66 71
63 62 62 63 63 64 65 65 67 67 67 68 67 68 68 68 68 68 68 69 69 69 69 69 69 69 69 69 69 70 71 72 72 72 73 73 73 73 74 72 72 74 75 74 74 74 74 75 73 72 72 71 71 70 67 65 59 61 62 62 62 65 72
61 61 62 63 63 64 65 65 66 65 66 67 65 65 65 65 66 66 66 67 67 67 68 68 68 67 68 68 68 69 69 70 71 71 71 72 73 73 73 73 74 73 75 75 75 75 74 74 72 72 71 71 70 70 68 63 58 59 59 60 62 65 70
59 59 60 61 61 62 62 64 66 65 64 63 62 62 63 64 64 64 64 65 65 66 66 66 66 66 66 67 67 68 69 69 70 70 70 71 71 71 72 72 73 73 74 74 73 73 73 72 71 71 72 72 73 71 68 65 58 56 56 57 59 66 72
58 58 59 59 60 59 61 61 61 61 60 61 61 61 62 62 63 64 64 64 64 64 65 64 65 66 66 65 66 67 68 68 68 69 69 69 69 69 70 72 72 73 74 73 73 73 73 72 71 71 72 73 72 70 67 63 58 54 54 54 56 64 72
55 54 55 54 53 53 54 56 58 59 60 58 57 58 60 61 60 58 59 60 59 59 59 60 61 62 64 63 65 66 67 68 68 67 68 68 68 69 69 70 71 72 72 72 73 73 73 72 70 70 71 72 71 70 66 63 61 54 53 53 54 64 74
51 51 50 49 50 51 53 56 54 51 50 51 54 54 54 53 54 56 55 55 55 56 58 60 61 61 62 62 62 63 64 67 68 67 67 68 68 68 69 70 71 71 71 71 72 72 73 71 70 69 70 70 69 68 66 64 61 57 52 52 53 58 74
52 50 50 49 50 56 50 51 50 50 50 53 55 53 53 54 54 54 56 55 54 54 56 58 59 60 63 63 61 61 62 62 63 64 65 66 68 67 69 70 70 70 69 69 70 71 71 70 70 69 67 67 66 65 65 65 63 60 52 51 51 54 64
50 51 51 53 54 50 45 43 46 46 47 50 51 54 55 56 57 58 57 56 55 55 55 55 57 58 59 62 62 62 63 65 65 64 64 67 67 67 65 66 68 68 69 68 67 66 66 66 65 64 64 65 64 64 64 64 63 63 56 52 50 51 53
52 50 49 49 49 46 45 46 45 45 47 48 49 51 53 54 56 56 56 55 55 55 57 57 57 58 59 61 60 61 60 64 63 64 64 65 64 64 64 66 66 67 67 66 65 65 65 64 65 64 64 63 63 64 64 64 63 61 61 54 51 51 52
52 50 48 47 46 47 48 48 48 48 48 49 52 52 54 55 56 57 56 56 57 56 57 58 58 60 58 59 59 57 58 58 63 65 65 64 64 63 64 66 66 67 66 66 65 65 65 65 65 64 63 62 63 63 64 64 65 63 61 60 54 52 51
50 49 48 47 46 49 48 47 48 49 50 51 54 54 56 55 55 56 56 56 58 58 56 56 56 56 57 57 57 58 56 58 62 63 63 62 62 63 63 63 65 66 67 65 64 64 64 64 65 65 64 63 62 63 63 65 65 64 63 62 61 56 54
51 51 48 47 49 49 48 46 45 46 48 50 51 53 57 55 55 56 56 55 57 58 58 56 56 56 55 53 54 54 54 56 53 54 59 58 60 62 64 62 62 64 65 67 63 63 63 63 62 63 63 62 62 62 63 64 64 63 65 64 64 63 59
55 53 51 51 51 52 50 48 47 48 48 47 47 48 50 53 55 57 59 59 56 57 59 59 57 57 56 57 50 52 52 51 51 52 53 55 55 56 58 61 60 58 59 59 57 61 62 61 62 62 60 60 61 61 62 62 61 60 61 59 60 61 62
59 56 56 54 52 53 52 50 49 50 52 54 54 54 53 53 53 54 57 53 52 52 54 56 55 52 52 50 51 53 48 49 49 52 49 51 53 54 55 57 56 54 54 53 53 52 53 56 57 59 60 62 63 64 62 56 55 55 56 55 55 56 57
60 59 57 56 55 55 58 55 54 54 53 53 54 54 54 54 55 54 57 55 55 57 56 56 55 55 54 51 47 47 56 51 51 51 52 52 55 54 55 54 54 55 53 53 53 52 50 53 55 57 55 56 57 59 56 54 53 54 48 53 46 52 54
58 57 56 55 54 56 57 57 56 55 55 55 55 54 55 54 55 58 53 55 56 57 57 57 55 50 46 47 48 50 50 48 45 50 55 52 51 52 53 54 49 52 53 52 54 51 48 49 53 53 56 53 53 55 53 53 54 46 44 42 42 42 43
57 57 57 54 54 56 57 56 56 56 56 56 57 56 56 56 53 55 53 55 56 55 56 57 57 53 48 48 47 51 52 51 52 53 58 55 55 54 53 50 53 44 44 50 51 46 42 42 43 45 48 59 53 52 50 48 44 43 43 42 42 42 41
59 58 58 58 57 58 57 57 56 55 55 56 57 57 57 55 55 56 53 54 53 55 56 54 56 56 53 52 51 55 56 53 54 55 55 58 56 58 59 56 55 54 45 41 45 45 41 41 42 42 43 45 51 58 56 49 42 39 42 42 43 42 41

ECMWFFLT1_sfc_dewp_111.txt.gz
Dewpoint
62 63 63 62 61 63 60 62 62 62 62 64 61 62 65 68 69 70 70 71 72 73 74 73 73 73 74 75 75 74 74 74 74 74 74 75 75 75 75 75 74 74 73 73 73 73 73 74 71 73 74 74 75 77 76 76 76 77 76 78 77 78 77
62 63 65 65 63 64 67 63 63 64 63 64 61 62 65 68 69 69 70 71 72 73 74 73 73 73 74 75 75 75 75 74 75 75 74 75 75 75 75 75 74 74 75 73 75 75 75 74 74 73 73 74 74 76 76 77 76 76 76 75 75 76 77
62 63 65 65 63 62 64 64 63 65 63 62 62 64 67 69 69 69 70 71 71 73 73 73 73 72 74 74 74 75 75 75 75 75 74 73 74 74 75 75 76 75 74 76 77 76 75 74 72 74 73 73 72 75 75 76 76 76 78 78 76 75 76
63 64 65 65 64 63 63 64 63 63 62 62 63 65 67 69 70 70 71 71 71 72 72 72 73 72 73 73 73 74 74 74 76 74 74 73 73 74 74 75 76 75 74 75 76 75 74 73 73 75 77 72 72 74 75 75 75 76 77 77 77 76 76
64 65 64 64 63 64 63 66 69 68 63 61 63 66 67 69 71 71 71 71 71 71 71 72 72 72 73 73 73 73 73 74 75 74 73 73 73 73 73 73 73 73 73 74 73 75 74 74 73 74 73 75 75 74 74 75 75 75 76 77 76 76 76
64 65 66 64 63 65 64 64 64 64 66 62 67 66 67 69 71 70 71 72 71 71 71 71 71 71 71 72 72 72 73 74 74 74 72 73 73 72 73 72 72 72 74 73 74 73 74 73 73 73 73 73 74 74 73 74 74 75 76 77 76 75 75
64 65 66 67 68 69 64 64 63 63 64 66 68 68 68 70 70 70 71 71 71 70 70 70 70 71 71 71 71 73 72 73 73 72 71 72 72 72 72 72 73 72 71 73 72 73 73 73 72 73 73 71 72 72 73 74 73 74 75 75 76 76 75
64 64 66 68 68 68 69 64 64 64 64 67 66 67 68 69 70 70 70 70 70 70 70 69 69 70 70 70 70 71 71 72 72 70 70 71 71 71 70 71 72 72 72 71 72 72 72 73 72 73 72 72 72 71 73 74 75 74 75 75 76 76 74
64 64 65 68 68 69 71 68 68 66 66 66 66 68 69 70 69 69 69 69 69 68 68 69 70 68 69 69 69 70 70 70 71 70 69 70 70 70 70 71 71 72 71 70 71 72 71 72 72 72 73 72 72 74 73 75 74 74 74 75 75 74 73
63 65 67 69 70 71 71 71 70 68 68 68 67 68 69 70 70 70 70 70 69 69 70 70 70 72 70 69 68 68 68 69 69 69 68 67 69 69 69 69 70 71 70 69 69 70 71 71 71 73 73 73 73 74 73 75 75 74 74 74 74 75 75
64 65 66 68 68 69 69 70 69 69 69 69 69 69 70 70 71 71 71 71 70 71 72 72 72 71 70 69 68 68 67 67 67 67 67 66 65 67 68 67 68 70 69 69 68 69 70 72 73 72 73 72 72 74 74 74 74 75 74 73 74 74 74
65 65 66 67 68 67 68 68 69 70 70 70 70 70 69 69 70 71 71 71 71 70 72 73 74 71 69 69 69 67 66 66 65 66 66 66 65 64 64 65 66 68 69 68 68 67 68 70 71 72 72 74 73 74 74 73 74 75 74 73 73 74 74
65 65 65 66 66 67 68 68 68 68 70 71 71 71 71 72 72 71 69 70 71 71 72 73 73 72 69 70 70 71 71 72 73 69 66 66 65 64 63 62 63 65 67 67 68 67 67 69 71 72 72 74 74 74 75 75 75 74 74 73 72 73 73
65 65 66 66 66 67 67 67 67 67 67 67 67 70 71 72 71 71 70 71 72 70 70 70 70 70 72 71 72 70 71 75 74 73 74 75 75 71 68 68 66 63 63 66 66 67 67 68 69 72 72 73 73 74 74 74 74 75 75 75 73 73 73
64 64 64 65 65 67 66 66 67 67 68 68 68 68 69 70 70 70 70 70 71 71 71 72 72 71 72 71 72 72 71 73 73 74 75 75 74 72 72 70 70 70 70 70 68 66 67 70 67 70 72 73 74 74 74 74 75 75 75 75 75 75 74
63 64 63 65 65 66 67 66 67 67 67 67 67 67 68 69 69 70 70 71 71 71 71 71 71 71 73 71 71 73 74 75 75 74 74 74 73 73 72 71 71 70 70 70 69 69 70 70 69 68 71 71 72 73 72 72 73 75 76 75 75 74 73
63 64 64 65 65 65 66 67 67 68 67 67 68 68 68 69 68 70 70 70 70 71 73 72 71 71 71 71 73 75 74 74 73 73 73 72 72 72 72 72 72 72 72 71 70 70 70 69 70 71 70 68 71 72 73 72 73 68 64 67 69 74 75
64 64 64 64 65 65 66 66 66 67 67 67 67 68 69 69 70 70 70 71 72 71 73 73 72 71 71 71 72 73 73 73 73 72 72 71 71 71 71 71 71 71 72 72 73 72 73 71 71 69 68 68 70 71 72 69 66 63 64 66 67 71 73
64 65 65 65 65 65 65 66 66 65 66 66 67 67 68 69 69 69 69 69 70 72 71 71 72 72 72 72 73 73 73 73 73 72 71 71 71 71 71 71 71 70 71 73 73 74 74 72 72 70 71 69 70 70 70 67 63 62 64 65 66 68 73
64 64 65 65 65 65 65 66 66 66 66 67 67 68 69 69 69 69 70 70 70 70 69 70 70 70 70 70 71 71 72 72 72 72 72 72 72 72 71 70 70 71 72 73 73 73 73 74 73 72 71 71 70 69 68 66 63 62 62 63 64 66 70
64 64 65 65 65 65 66 66 66 66 67 67 68 68 68 68 68 69 69 69 69 69 69 68 68 68 69 69 69 70 70 71 72 72 72 72 72 72 72 71 70 71 73 73 72 72 71 72 72 72 72 71 70 68 66 63 59 59 61 60 62 63 72
64 64 64 65 65 66 66 66 67 67 68 69 69 69 68 68 68 67 68 68 68 68 68 67 67 67 67 68 68 69 69 70 70 71 71 71 72 72 72 72 71 72 73 73 72 73 73 72 72 72 71 72 71 68 67 61 56 56 57 58 59 64 72
65 65 65 66 67 67 67 67 67 68 68 68 68 68 67 67 68 68 68 68 67 67 67 67 66 66 67 67 67 68 68 69 70 70 70 70 70 71 71 71 71 72 72 72 72 73 72 71 71 72 72 72 72 69 66 62 57 55 55 56 58 66 73
65 64 64 65 65 67 67 68 68 69 68 65 65 65 65 66 67 66 66 66 66 66 66 66 66 66 66 66 67 68 68 68 68 68 69 69 69 69 70 71 71 71 72 71 71 71 72 71 71 71 72 72 70 67 63 61 58 54 53 54 56 63 71
62 62 62 62 63 64 65 65 66 67 67 66 66 64 63 65 65 63 61 60 61 60 60 60 63 65 65 66 67 67 67 68 68 68 68 68 68 69 69 69 69 70 71 71 71 71 71 71 69 70 70 69 68 67 63 61 60 54 53 53 55 64 71
57 58 58 59 60 59 60 63 58 56 58 62 63 60 62 63 59 58 59 59 58 59 59 60 61 62 64 64 65 67 67 67 68 68 68 68 68 69 69 70 70 69 70 70 70 71 71 70 69 68 68 67 66 64 63 62 61 58 52 52 54 59 73
51 51 50 49 51 57 49 51 53 54 55 56 56 56 56 56 55 55 57 56 56 57 57 58 59 60 62 63 63 63 64 66 67 66 68 68 68 69 69 68 68 68 68 68 69 69 68 69 68 66 64 64 64 64 64 63 61 60 52 51 52 56 66
51 47 47 52 54 50 48 49 50 52 54 55 55 55 55 56 57 57 58 56 54 55 56 57 58 59 61 62 62 64 65 64 65 67 68 68 67 67 67 67 66 66 66 66 65 64 64 64 64 63 63 63 63 63 63 63 62 62 57 52 50 51 56
48 49 49 48 50 54 54 54 54 51 52 53 54 55 56 56 57 57 57 57 57 58 59 58 59 60 60 60 61 63 63 63 63 63 64 64 66 66 66 66 66 65 65 64 64 64 63 63 63 62 62 62 63 63 63 63 63 61 61 56 52 50 52
52 48 46 47 47 49 52 51 53 56 53 54 55 56 57 58 58 58 57 57 58 58 59 60 62 61 60 62 61 60 62 63 66 64 64 64 64 66 66 66 65 65 65 64 63 63 63 63 62 61 61 61 62 63 64 64 63 63 62 61 56 53 52
51 48 48 48 47 50 51 51 52 52 53 54 56 57 58 58 58 58 57 57 60 59 58 58 58 58 57 58 61 61 60 60 61 63 63 62 62 63 65 66 67 65 65 65 64 64 63 63 63 62 62 61 60 61 62 63 63 63 63 62 63 59 57
48 48 48 50 50 48 47 48 49 51 53 54 55 56 58 57 58 57 57 58 60 59 59 58 58 58 58 57 53 55 61 60 59 60 60 61 60 60 58 57 58 57 55 58 62 63 63 64 63 62 61 59 60 61 62 63 63 60 60 60 60 61 60
51 51 51 52 54 54 49 49 49 49 49 49 50 52 55 57 58 58 58 60 58 58 60 60 59 59 56 51 53 54 52 54 53 53 54 54 54 55 56 54 52 52 54 53 52 54 61 64 64 63 63 62 61 62 63 56 54 55 55 55 55 56 58
53 52 55 56 56 53 52 53 54 56 56 56 55 55 54 53 55 56 57 56 55 55 57 58 58 57 55 55 55 55 57 56 59 55 52 52 52 53 54 53 52 50 51 50 51 53 56 57 58 58 59 61 62 58 55 54 55 54 54 53 53 54 54
57 56 55 56 56 56 55 55 54 56 57 56 56 56 57 56 54 54 56 57 59 59 60 57 56 60 57 52 52 52 55 56 54 53 52 50 51 51 52 53 55 52 52 53 53 54 54 55 56 55 53 55 57 56 54 53 53 55 47 52 46 50 53
57 56 56 56 57 57 57 57 56 55 56 55 56 57 56 57 58 57 57 57 57 59 59 58 59 57 50 51 53 53 53 54 55 55 53 51 51 50 51 52 47 50 52 52 52 49 47 51 55 55 51 51 52 55 54 53 54 48 43 42 42 42 42
58 57 56 57 56 56 57 57 56 57 57 56 58 58 58 57 56 57 58 59 59 59 58 58 57 53 50 52 54 56 55 55 56 57 56 52 51 51 51 49 50 43 43 50 49 45 41 41 45 49 52 56 51 53 49 49 44 41 42 43 43 42 41
59 59 59 58 58 58 58 57 57 56 57 56 57 57 57 58 57 57 56 56 56 58 57 56 55 53 53 52 54 58 58 56 57 58 58 57 56 54 54 52 51 51 46 41 44 44 41 40 40 41 44 49 53 53 53 47 41 40 41 41 41 40 40

ECMWFFLT1_sfc_dewp_114.txt.gz
Dewpoint
63 64 63 61 60 56 57 60 61 62 63 63 63 65 67 68 69 70 70 72 72 72 73 73 73 74 73 73 73 73 73 73 74 73 73 74 74 74 74 74 73 73 72 73 73 73 73 73 72 74 73 73 75 76 76 76 76 77 76 76 76 77 75
62 63 64 62 61 59 58 60 61 62 63 63 63 66 67 69 69 70 70 72 72 72 73 73 73 73 73 73 74 73 73 73 74 75 74 74 75 74 75 74 74 73 73 73 73 73 74 73 72 73 73 74 74 75 75 75 74 75 75 75 75 75 76
61 62 63 62 61 61 60 60 60 61 61 62 63 66 67 69 70 70 71 72 72 72 73 73 73 73 74 74 74 73 73 73 74 74 73 74 74 74 75 74 74 74 74 74 73 73 74 74 73 73 73 73 73 75 75 75 75 75 75 75 74 74 74
61 62 64 63 61 61 62 61 61 61 62 62 64 66 68 69 70 70 71 72 72 72 72 72 73 73 74 74 73 73 73 73 74 74 73 74 74 74 74 74 75 75 74 74 74 75 74 73 72 73 75 73 73 74 74 75 75 75 76 76 75 74 74
61 61 64 63 61 61 62 64 63 63 63 63 64 67 68 69 70 70 71 72 72 72 72 72 72 73 74 74 73 73 74 73 74 74 73 73 73 74 74 73 74 74 74 74 74 75 75 73 72 74 74 73 72 73 74 74 74 75 75 75 75 75 75
61 62 64 63 62 61 61 64 64 65 65 66 67 67 68 69 70 70 71 72 72 72 73 72 72 73 73 73 73 73 74 74 74 74 73 73 72 73 73 72 72 72 73 73 74 74 74 73 72 73 73 72 72 73 74 74 74 74 74 75 75 74 75
61 62 63 63 62 62 63 64 64 65 64 64 66 69 69 69 69 70 70 71 72 72 72 72 72 72 73 73 72 73 73 73 74 74 73 73 72 72 72 72 72 72 72 74 73 73 73 72 72 73 72 72 73 73 73 73 74 75 74 75 75 75 74
61 62 64 63 63 62 63 64 64 64 65 66 67 69 69 69 69 70 70 71 71 71 72 72 72 72 72 72 72 72 72 73 74 74 73 72 72 72 72 72 72 72 72 73 73 73 72 72 71 73 72 72 72 72 73 73 73 74 74 75 75 75 75
63 63 64 65 65 65 63 64 64 64 65 66 66 67 69 69 69 70 70 71 71 71 71 72 72 71 72 72 72 72 72 72 73 73 73 72 72 72 71 72 72 72 72 72 72 72 72 72 72 72 73 72 72 72 72 73 73 73 74 74 74 74 74
63 65 67 67 67 70 68 66 65 65 65 67 66 66 68 69 70 70 71 71 71 71 72 71 71 72 71 72 71 72 72 71 72 72 71 71 71 71 71 71 71 72 71 71 71 71 72 72 72 72 73 72 72 72 72 73 73 73 73 74 74 74 74
64 65 67 68 68 68 68 67 64 64 65 66 66 66 67 69 70 70 70 71 71 71 71 71 70 71 71 71 71 71 71 71 71 71 70 70 70 70 71 70 70 71 71 70 70 71 71 72 72 72 72 72 72 73 73 73 74 74 73 73 74 74 74
64 65 65 65 66 66 66 67 67 66 65 66 66 67 68 69 70 70 70 70 70 70 70 70 71 71 71 70 70 69 69 70 70 70 70 69 69 70 70 70 69 70 71 70 69 69 70 71 71 72 72 72 72 72 73 73 74 74 74 73 73 74 74
64 65 65 66 66 66 66 66 66 67 68 68 67 68 68 69 69 69 69 69 70 70 70 71 70 70 70 70 70 69 69 69 69 70 69 69 68 69 69 69 69 69 69 70 69 68 69 70 71 72 72 72 72 72 73 73 73 74 74 74 73 73 73
66 65 65 66 66 66 66 66 67 67 68 69 69 69 69 69 69 69 69 69 69 70 70 71 70 70 70 71 71 69 70 70 70 70 72 70 68 67 67 68 68 68 69 70 69 68 68 69 70 71 71 71 72 73 74 73 73 73 74 74 73 73 73
63 64 65 65 66 66 66 66 66 67 67 67 67 68 68 68 68 69 69 69 69 69 70 70 70 70 71 71 70 70 70 70 71 71 73 73 72 71 71 71 69 68 68 69 69 68 68 68 69 70 71 71 72 73 74 74 73 73 74 74 74 73 72
63 64 65 65 66 66 66 66 66 66 66 67 67 68 68 68 68 69 69 69 70 70 71 70 70 70 70 71 71 71 70 71 71 72 73 72 72 72 71 71 71 71 70 69 68 69 68 68 69 69 71 72 72 73 73 73 74 75 76 76 75 74 74
63 63 64 65 65 66 66 66 66 66 66 66 67 67 68 68 68 69 68 69 70 70 71 70 70 70 71 71 71 73 74 73 72 72 72 71 71 71 71 71 71 71 71 71 70 69 70 69 69 69 69 70 71 72 74 73 72 68 65 67 70 75 74
63 63 64 64 65 65 66 66 66 66 66 66 67 68 68 67 68 68 68 69 71 71 71 71 70 69 69 70 71 72 72 72 72 71 71 71 71 71 70 70 70 70 71 71 71 71 70 69 69 69 68 69 71 72 72 70 68 63 65 66 66 71 73
63 64 64 64 64 65 65 65 65 65 66 66 67 67 68 69 69 69 69 70 70 71 70 70 70 68 69 71 71 71 71 72 72 71 70 70 71 71 70 70 70 70 71 72 72 72 70 69 69 68 70 69 70 71 71 67 63 63 65 65 65 68 72
64 64 64 64 65 64 65 65 65 66 66 67 67 68 69 69 69 69 69 69 69 69 69 69 69 69 70 70 69 69 70 70 70 70 69 70 70 70 70 70 69 70 71 73 73 72 71 70 69 69 69 69 69 70 68 66 63 62 63 63 65 68 71
63 64 64 64 65 65 65 65 66 66 67 67 68 68 68 69 69 69 69 69 68 68 68 68 68 68 68 69 69 69 69 70 71 70 70 70 71 71 70 70 70 70 71 71 72 71 71 71 71 70 71 71 69 68 65 61 58 59 60 60 63 66 71
64 64 64 65 64 65 65 66 66 66 67 68 68 68 68 68 69 68 68 68 67 67 67 67 67 67 67 67 68 68 69 69 70 70 70 70 71 71 71 70 70 71 72 71 71 71 71 71 71 70 71 70 69 67 63 59 56 56 57 58 60 68 71
64 64 65 65 66 66 66 67 67 67 68 68 68 68 68 68 68 68 67 67 67 67 67 66 66 66 67 67 67 68 68 68 69 69 69 69 69 69 69 69 70 71 72 71 71 71 70 70 71 71 71 71 69 66 64 62 57 55 55 56 57 67 70
63 64 65 65 66 66 66 67 68 68 68 68 68 68 68 68 68 67 67 67 67 66 66 66 66 66 67 67 67 67 67 68 68 68 68 68 68 69 70 70 70 70 72 70 71 71 70 70 69 70 70 71 68 65 62 60 58 54 53 54 56 63 70
62 63 64 64 64 64 64 65 65 65 65 65 65 66 66 65 65 63 63 64 63 64 65 65 66 66 66 67 67 67 68 68 68 68 67 68 68 69 69 69 69 70 70 70 70 70 70 70 69 69 68 68 67 66 63 61 61 54 53 53 55 62 69
61 60 62 64 64 64 64 64 63 63 63 63 63 64 64 64 64 62 62 62 60 61 62 63 64 64 66 67 67 68 68 68 68 67 67 68 69 69 69 69 69 69 69 70 70 70 69 69 68 67 66 65 64 64 62 61 61 58 52 52 53 57 69
60 59 59 61 62 63 61 62 62 61 62 62 63 62 60 61 61 61 61 59 59 60 61 63 63 63 63 64 64 66 67 67 67 67 68 68 68 68 68 67 67 67 67 68 67 66 66 66 65 64 63 63 63 63 63 63 61 61 53 51 51 53 61
59 56 54 56 57 56 57 58 61 61 61 62 59 59 61 59 59 58 58 57 57 57 59 60 60 61 62 63 64 65 65 65 66 68 68 68 67 66 66 66 66 66 66 65 65 64 63 63 63 62 62 63 63 63 63 64 63 62 57 54 52 52 53
51 52 53 53 53 55 54 54 55 56 58 58 59 58 59 57 57 58 59 58 58 58 58 58 59 60 61 62 63 63 63 64 64 65 66 67 67 66 65 65 64 64 64 64 63 63 62 62 62 62 62 62 63 63 63 63 64 62 63 58 54 53 54
49 50 50 51 53 54 55 54 55 55 55 55 56 56 56 56 57 58 56 57 58 58 61 62 61 61 62 63 61 62 64 63 63 63 64 66 66 66 64 64 64 64 64 63 63 62 62 62 62 61 61 61 61 62 63 63 62 62 61 61 55 53 53
48 49 50 51 52 55 54 53 54 54 55 56 56 57 57 57 57 58 57 58 59 58 58 58 60 59 60 60 61 61 61 62 61 60 60 59 60 60 61 60 61 60 61 64 62 61 61 61 61 61 61 61 60 61 62 62 60 59 60 60 60 56 54
48 49 50 51 52 53 53 53 54 54 54 54 55 56 58 57 56 56 56 59 61 60 60 59 59 59 56 56 59 60 60 56 55 56 56 56 56 56 55 55 57 56 55 56 61 62 61 61 60 59 59 59 60 61 61 59 57 56 57 59 59 60 57
50 49 48 49 53 54 51 51 50 50 51 52 55 56 57 57 58 58 59 57 55 56 60 63 60 59 55 54 55 56 55 55 54 53 54 53 52 52 53 52 51 53 56 55 56 61 63 63 62 62 61 61 60 57 55 55 54 53 54 54 54 55 56
55 55 55 53 53 54 54 54 54 53 53 53 53 54 55 55 56 57 57 57 58 59 60 61 60 55 53 54 57 57 58 59 60 55 51 52 52 52 51 51 52 52 53 53 53 56 58 60 61 60 61 60 57 55 56 55 55 54 53 53 52 52 53
55 55 54 53 54 55 53 54 54 55 55 55 55 54 54 54 56 56 56 56 57 58 59 61 62 58 53 54 56 58 58 56 54 52 50 50 51 51 51 52 52 52 52 53 52 53 54 55 55 55 54 56 56 55 54 54 53 54 47 51 46 49 52
54 55 55 56 56 55 55 56 55 54 54 54 55 55 55 56 55 56 57 57 57 57 58 58 55 53 54 54 54 55 55 53 52 51 51 49 49 50 51 50 46 48 50 51 53 49 47 50 54 54 52 51 52 55 54 52 53 45 42 41 42 42 42
55 55 54 55 54 55 55 54 55 55 54 54 56 56 56 55 55 56 56 56 56 56 55 54 54 54 55 57 56 57 57 54 51 51 50 49 48 49 50 48 49 42 43 48 48 44 41 41 43 47 51 57 51 52 48 46 43 41 40 41 42 40 40
56 55 56 55 55 55 55 56 55 54 55 55 56 55 55 56 56 55 55 55 56 57 55 54 54 53 54 56 57 59 58 56 57 55 52 52 51 50 50 48 48 49 45 42 43 42 40 40 41 41 42 45 50 55 51 47 41 40 40 40 40 40 40

ECMWFFLT1_sfc_dewp_117.txt.gz
Dewpoint
61 65 63 56 56 59 60 62 63 63 63 64 65 65 66 67 68 68 68 70 70 70 72 73 73 72 72 72 72 72 72 72 72 71 71 71 72 72 71 72 72 73 72 72 72 72 72 73 73 73 74 73 73 74 74 75 74 75 74 75 75 76 74
60 63 65 60 55 58 60 61 63 63 63 64 65 65 66 66 68 68 69 70 70 70 71 72 73 73 72 72 72 72 72 72 73 73 72 72 74 73 72 72 72 73 72 72 73 73 73 73 73 73 73 74 74 74 74 75 74 74 74 74 74 73 75
60 62 64 62 56 57 60 61 63 63 63 64 65 65 66 67 68 68 69 70 70 70 71 72 73 73 73 72 72 72 72 72 73 73 72 72 73 73 73 73 73 73 73 73 73 73 74 73 73 72 73 73 73 74 74 74 74 74 74 73 73 73 73
60 61 63 63 57 57 59 61 62 63 63 63 64 65 66 68 68 68 69 70 70 70 71 71 72 73 73 73 72 72 72 72 73 73 73 73 73 74 74 74 74 73 73 73 73 73 73 74 73 72 75 73 73 73 74 74 74 74 74 74 73 72 72
61 61 63 63 59 56 58 60 62 63 63 63 64 66 66 68 69 69 69 70 70 70 71 71 72 72 73 73 73 72 72 72 72 73 73 73 74 74 74 74 74 74 74 74 74 75 74 73 73 72 72 73 72 73 74 74 74 74 74 74 73 73 73
60 61 62 63 61 58 58 60 61 62 63 63 63 65 67 68 69 69 69 70 70 71 71 72 72 73 73 73 73 73 73 73 73 73 73 73 73 73 73 73 73 74 74 74 74 74 74 74 72 72 72 73 72 72 73 73 74 74 74 74 74 74 74
60 61 61 62 62 60 58 59 61 62 63 63 64 66 67 68 69 69 69 70 71 71 71 71 72 72 73 73 73 73 73 73 73 73 73 73 73 73 73 73 73 73 73 73 73 73 73 73 72 72 73 72 72 72 72 73 73 74 74 74 74 74 73
60 61 61 62 62 61 60 60 61 61 62 64 64 66 67 68 69 69 70 70 71 71 71 71 72 72 73 73 73 73 73 73 73 73 73 73 72 72 72 72 72 72 72 72 73 73 73 73 72 73 72 72 72 72 72 73 73 74 74 74 74 74 74
61 61 61 62 62 62 62 63 62 62 63 63 64 66 67 68 69 69 70 70 71 71 71 72 72 72 73 73 73 72 73 73 73 73 73 73 72 72 72 72 72 72 72 71 72 73 73 73 72 72 72 72 72 72 72 72 73 73 74 74 74 74 74
61 62 65 67 67 66 66 66 67 65 65 64 65 67 67 68 69 69 70 70 71 71 72 72 72 72 72 73 72 72 72 72 73 73 73 73 72 72 71 71 71 72 72 71 71 72 73 73 72 72 72 72 72 72 72 73 73 73 73 74 74 74 74
64 65 66 66 66 65 65 65 66 66 66 65 66 67 68 68 69 69 70 70 71 71 72 72 72 72 72 72 72 72 72 72 72 72 73 73 72 72 72 71 71 71 72 71 71 71 72 72 72 72 72 71 72 72 72 72 72 73 73 73 74 74 74
64 65 65 65 66 65 65 65 65 66 66 66 67 67 68 69 69 69 70 70 71 71 72 72 72 72 72 72 72 72 72 72 72 72 72 72 72 71 71 71 71 71 71 71 71 71 71 71 72 72 72 72 72 72 72 72 72 73 73 72 73 74 74
64 64 64 64 65 66 66 65 65 66 66 67 68 68 68 68 68 68 68 69 69 69 69 70 72 72 72 72 72 71 72 72 72 72 72 72 71 71 71 71 71 70 70 71 71 70 70 70 71 72 72 72 72 72 72 72 73 73 73 73 73 73 73
65 64 64 64 65 65 65 65 66 66 67 67 67 68 68 69 69 68 68 69 69 70 70 69 69 69 71 71 71 70 71 71 71 71 70 70 70 70 70 70 70 70 70 71 71 70 70 69 70 71 72 72 72 72 72 72 72 73 73 73 73 73 73
63 63 62 63 64 64 65 66 66 66 67 67 67 68 68 68 69 69 69 70 70 70 70 70 69 69 69 70 70 69 69 70 70 70 70 70 71 70 69 69 70 70 70 70 70 70 70 69 69 70 71 71 71 72 72 72 72 72 73 73 73 73 73
63 63 64 64 64 65 65 66 66 66 66 67 67 67 68 68 68 69 69 69 70 70 70 70 70 69 69 69 69 70 70 70 69 70 70 70 71 71 70 69 69 69 69 69 69 70 70 69 69 69 70 70 70 71 72 73 73 74 75 75 73 73 73
63 63 64 65 65 65 65 66 66 66 66 67 67 67 68 68 68 69 69 69 69 69 70 70 69 69 69 69 69 70 71 70 69 69 69 69 70 69 70 70 70 69 69 68 68 69 69 69 68 68 69 70 70 71 72 73 74 74 71 71 74 75 73
62 64 64 64 65 65 65 66 66 66 66 66 67 67 67 67 68 68 68 69 69 70 70 70 69 69 69 69 70 71 70 69 69 69 68 69 68 68 69 69 69 70 69 69 69 69 69 69 68 68 69 70 70 71 72 72 73 66 66 68 68 75 74
63 63 64 64 64 65 65 65 65 65 66 66 67 67 67 68 67 67 68 68 69 70 70 69 69 69 70 70 71 70 70 69 69 69 68 68 68 68 69 69 68 69 70 70 70 69 69 69 69 68 70 69 70 71 72 70 64 64 65 66 67 71 74
63 63 64 64 64 64 65 65 65 66 66 66 67 68 68 68 68 68 69 69 69 69 68 68 68 68 68 69 69 70 70 69 68 68 68 69 69 68 68 68 68 68 69 70 72 70 68 68 68 68 68 69 69 71 70 66 62 62 64 64 65 68 72
63 63 63 64 64 64 65 65 66 66 66 67 68 68 68 68 68 68 68 68 68 68 67 67 67 67 68 68 68 69 68 68 68 68 69 69 68 69 69 69 69 69 70 70 70 70 69 69 68 68 70 70 69 69 64 60 58 59 60 60 63 65 72
64 64 64 64 64 64 65 66 66 66 67 68 68 68 68 68 68 68 67 67 67 67 67 67 66 67 67 67 68 68 68 69 69 69 69 69 70 70 69 69 69 69 70 70 70 69 69 69 70 69 69 69 68 65 62 59 57 57 57 58 59 63 69
63 64 65 65 66 66 67 67 67 67 67 67 67 67 67 68 68 67 67 67 67 67 67 66 66 66 66 67 67 68 68 68 69 68 68 70 70 69 69 69 69 70 71 70 69 69 69 69 69 70 69 69 67 64 62 61 58 55 55 56 58 63 69
64 64 64 65 65 66 66 66 67 67 67 66 66 67 67 67 67 67 66 66 66 65 65 65 65 66 67 66 67 67 67 68 68 68 68 68 68 68 68 68 69 69 70 69 70 69 69 69 69 69 69 68 66 63 61 60 59 54 53 54 56 62 67
63 63 64 64 64 64 64 64 64 65 64 64 64 65 65 65 65 66 65 66 65 65 65 65 66 66 66 67 67 67 67 67 67 67 67 67 67 68 68 68 69 70 71 70 70 69 69 69 68 68 67 67 66 66 63 62 61 54 53 53 54 62 66
61 62 62 62 62 63 63 63 63 63 63 63 63 64 64 64 64 64 63 63 65 65 65 65 66 67 67 67 67 67 68 68 68 68 67 67 67 67 67 68 68 68 69 69 69 69 69 69 68 66 64 64 63 63 62 61 60 59 53 53 53 57 66
59 61 61 62 62 63 62 62 62 61 62 62 62 63 63 62 62 62 63 63 63 63 64 64 65 65 65 66 67 67 67 67 68 68 68 68 67 68 67 67 67 67 66 66 66 68 68 67 65 63 63 63 63 63 63 63 61 61 53 52 52 54 60
58 59 60 62 62 62 60 60 61 61 62 63 62 62 61 60 60 60 61 61 61 62 63 63 63 64 64 64 65 65 66 67 67 68 67 67 66 65 65 65 65 66 65 65 64 63 63 63 63 62 62 62 63 63 63 64 64 63 57 53 52 52 55
55 56 57 57 58 59 59 58 59 60 61 62 62 62 61 61 59 59 59 59 60 60 60 61 62 63 63 63 63 64 64 65 67 66 66 66 65 64 64 64 64 64 64 63 63 62 62 62 62 61 61 62 62 62 62 62 63 61 61 55 52 52 52
53 53 54 55 57 57 57 56 56 56 57 58 59 60 61 60 60 60 58 57 60 60 62 61 61 62 63 64 63 63 64 64 64 64 64 65 64 63 62 62 63 63 63 62 62 62 62 62 62 61 61 61 61 61 60 60 60 61 60 59 54 53 52
52 52 53 54 54 57 55 54 55 55 55 56 57 58 58 58 57 58 57 59 61 60 60 60 61 60 61 62 62 61 59 59 58 58 57 57 58 59 59 58 59 59 60 62 61 61 60 61 61 61 61 61 60 60 59 59 58 57 59 59 59 55 54
52 53 53 53 54 55 55 54 53 53 53 54 55 56 58 56 56 57 57 58 60 60 60 60 60 59 58 60 59 57 56 54 53 53 53 53 53 55 55 57 59 58 58 61 61 60 60 60 60 60 60 60 60 58 56 55 56 54 55 57 57 58 56
51 52 53 54 56 54 51 52 53 54 55 54 55 56 56 56 57 58 58 59 58 59 61 60 58 59 56 57 57 56 55 53 52 52 52 51 50 51 53 55 55 57 59 58 59 61 62 61 61 61 61 59 56 55 56 54 53 52 52 52 52 53 53
51 52 53 53 54 54 53 53 53 54 54 54 54 55 55 55 56 56 56 57 58 60 61 61 58 55 55 56 57 59 58 58 59 54 51 51 51 50 51 52 54 54 54 54 56 59 60 61 61 61 59 56 55 54 54 54 53 52 51 50 51 50 51
52 52 52 53 54 55 53 53 54 54 55 54 54 54 55 55 55 56 56 57 57 59 60 60 60 59 57 58 59 60 59 55 52 50 50 50 50 50 50 50 50 52 53 53 52 53 56 57 57 57 56 55 54 54 52 54 52 52 47 50 47 49 50
53 53 54 55 55 54 54 55 54 55 55 53 53 55 55 55 55 56 57 56 56 57 58 57 56 55 55 55 55 55 55 53 51 51 50 49 49 49 50 50 45 45 50 51 53 49 47 51 54 54 53 51 52 53 52 50 52 48 42 41 41 42 42
53 54 54 54 54 53 54 53 54 55 54 53 55 56 56 55 55 54 55 56 55 55 55 55 56 56 55 56 55 55 54 52 50 49 49 48 49 49 52 48 49 43 44 47 48 45 42 42 44 47 52 54 50 50 48 47 43 40 40 40 40 40 39
53 53 54 54 54 54 54 54 54 53 54 54 55 54 54 55 55 54 55 56 56 55 54 54 55 55 55 56 57 57 55 52 52 53 50 50 49 49 50 47 47 47 45 43 44 43 40 39 40 40 41 44 49 55 49 45 39 38 39 40 40 40 39

ECMWFFLT1_sfc_dewp_120.txt.gz
Dewpoint
61 64 58 56 58 59 60 61 62 63 63 64 65 65 65 66 68 68 68 69 69 69 70 72 72 71 71 71 71 71 71 71 72 71 71 71 71 72 72 72 72 73 73 72 72 73 74 75 75 74 75 75 74 74 75 75 76 76 76 77 75 76 75
59 63 60 57 57 59 60 62 63 63 63 64 65 65 65 66 68 68 68 69 69 69 70 71 72 71 71 71 71 71 72 72 73 73 72 72 73 73 72 72 72 73 73 73 73 73 74 74 75 74 74 75 75 75 74 75 76 76 76 76 76 76 77
59 62 62 57 57 59 60 62 63 63 63 64 64 65 65 67 68 68 68 69 69 69 71 71 72 72 72 72 72 72 72 72 73 72 72 71 72 73 73 73 73 73 73 73 73 73 74 74 74 74 74 74 74 75 75 75 76 75 76 76 76 75 75
60 60 63 60 58 59 60 61 63 63 63 63 64 65 65 67 68 68 68 69 69 69 70 71 72 72 72 72 71 72 72 72 73 72 72 72 72 73 74 74 74 73 73 73 73 73 74 74 74 74 75 74 74 74 75 75 75 75 75 76 75 75 75
59 60 63 63 58 58 60 61 63 63 63 63 65 66 66 66 68 68 69 69 69 69 70 71 71 72 72 72 72 72 72 72 72 73 73 72 73 74 73 73 73 73 73 73 74 75 75 75 74 74 74 74 74 74 74 75 75 75 75 75 75 75 75
59 59 61 64 60 58 60 61 62 63 63 64 64 65 66 66 68 68 68 69 70 70 70 71 71 72 72 72 72 72 72 72 73 73 73 73 73 73 73 73 73 74 73 74 74 74 74 74 74 74 73 73 73 73 73 74 74 75 75 75 76 75 75
59 59 61 63 62 58 59 60 62 63 64 64 64 66 66 67 67 68 68 69 70 69 70 70 71 72 72 73 72 73 72 72 72 72 73 73 73 73 73 74 74 74 74 75 74 74 74 74 74 74 73 73 74 73 73 74 74 75 75 75 75 75 75
59 59 60 62 62 58 58 60 61 63 64 64 64 65 66 67 68 68 68 69 69 70 70 70 71 71 72 73 73 72 72 72 72 72 73 73 73 73 73 73 74 74 74 74 74 74 74 74 74 74 73 73 73 73 73 74 74 74 75 75 75 75 74
60 60 61 62 62 59 58 59 61 62 63 64 64 65 66 67 68 68 69 69 70 70 70 71 71 71 72 72 73 73 72 72 72 72 73 72 72 72 72 73 73 74 73 73 73 74 74 74 73 74 74 73 74 74 73 74 73 74 74 75 75 75 74
61 61 63 64 64 63 61 62 62 63 64 64 64 65 66 67 68 69 69 69 70 70 71 71 71 72 72 73 73 72 72 73 73 72 72 72 72 72 72 72 72 73 73 72 72 72 74 74 74 74 74 73 74 74 73 74 73 73 74 74 74 75 75
63 64 64 64 64 64 64 64 63 63 64 64 64 65 66 67 68 69 70 70 71 71 72 72 72 72 72 73 73 73 72 72 72 72 73 72 72 72 72 72 72 72 72 72 72 72 72 74 74 74 73 72 73 73 73 73 73 74 73 74 74 74 74
64 64 64 64 65 64 64 64 65 65 65 65 65 67 68 69 69 69 69 70 70 71 72 72 73 73 73 73 72 73 72 73 73 72 73 73 73 72 72 72 72 71 72 72 72 72 72 72 73 73 73 73 73 73 73 74 74 74 74 73 74 74 74
64 64 64 64 65 65 65 64 65 66 66 67 67 68 68 69 69 69 69 70 70 71 71 71 72 72 72 73 72 73 73 73 73 73 73 73 73 73 72 72 72 71 71 72 72 72 71 71 72 73 73 73 73 72 73 73 73 74 74 74 74 74 74
64 64 64 64 64 64 64 65 65 66 66 67 67 68 69 69 69 69 69 69 70 71 71 71 71 72 72 72 72 72 72 72 73 73 72 73 73 73 72 72 72 72 72 72 72 71 71 71 71 72 73 73 73 73 73 74 73 74 74 74 74 74 74
63 63 64 64 64 64 65 65 65 65 66 66 67 67 68 69 69 70 70 70 70 71 71 72 71 71 72 72 72 72 71 71 71 71 71 70 70 70 70 70 71 72 72 73 72 71 71 71 71 71 72 72 73 73 73 72 72 73 73 74 74 74 73
63 64 64 65 64 64 65 65 65 65 65 66 67 67 67 68 68 69 69 70 70 71 71 71 71 71 71 71 71 71 71 70 70 70 70 70 70 70 70 70 71 70 71 71 71 72 73 72 72 71 71 71 72 72 72 73 73 74 75 75 74 74 73
63 64 65 65 64 64 65 65 65 65 66 66 67 67 67 68 68 69 69 70 70 70 70 71 70 71 71 71 71 71 70 70 70 70 70 70 70 70 70 70 70 70 71 71 71 71 72 72 71 70 70 70 71 71 72 72 73 73 70 70 73 75 74
63 63 64 64 64 64 65 65 65 65 66 66 66 67 67 68 68 68 69 69 70 70 70 70 70 70 70 70 70 70 70 70 70 70 69 69 69 69 70 70 70 70 70 71 71 71 71 71 71 71 70 70 70 71 71 72 73 69 68 69 69 74 75
63 63 64 64 64 64 64 65 66 66 66 67 67 67 68 68 68 68 68 69 69 69 69 69 69 69 69 70 70 70 70 70 69 69 69 69 69 69 69 69 68 69 69 70 72 73 71 71 71 70 71 70 70 70 71 71 68 67 68 68 68 70 76
63 63 64 64 64 64 65 65 65 66 67 67 67 68 68 69 68 68 69 69 69 69 68 68 69 69 69 70 70 70 70 70 69 69 68 69 69 69 69 69 68 69 70 71 71 71 70 70 70 70 70 70 70 71 72 71 64 63 64 64 65 66 71
63 63 63 64 64 65 65 66 65 66 67 67 68 68 68 68 68 68 69 69 68 68 68 68 68 68 69 69 69 70 69 69 69 68 69 69 69 69 69 69 69 69 70 70 70 70 70 70 70 71 71 71 70 71 68 60 58 59 60 60 61 63 68
63 64 64 64 64 65 65 66 66 66 67 68 68 68 68 68 69 68 68 68 68 68 68 67 67 67 68 68 68 69 69 68 68 69 68 68 68 68 69 68 69 69 70 71 70 70 70 70 70 70 70 70 69 68 63 60 57 57 57 58 59 62 67
64 64 65 65 65 65 66 66 66 66 66 67 67 67 68 68 68 68 68 67 67 67 67 67 66 67 67 67 68 68 69 69 69 69 69 69 68 68 69 69 69 70 71 70 70 69 70 70 70 71 71 70 68 65 63 61 58 55 55 56 58 64 67
63 63 64 64 64 65 65 65 65 65 65 65 65 66 67 67 67 67 66 66 66 66 66 66 66 66 67 67 67 67 68 69 68 68 68 69 69 69 68 69 69 69 71 70 69 69 70 70 69 69 69 68 67 64 62 62 59 54 54 55 57 64 67
62 62 62 63 63 63 63 64 64 63 63 63 63 64 65 65 66 66 66 66 65 65 65 65 66 66 66 67 67 67 67 68 68 68 67 68 68 69 69 69 69 69 71 70 70 69 69 70 68 68 66 66 66 66 63 62 61 54 53 54 55 63 67
60 61 61 62 61 62 62 62 62 61 61 61 61 63 63 64 64 65 65 65 65 65 65 65 66 67 67 67 67 68 68 68 68 68 67 67 67 68 68 69 68 68 69 70 70 69 69 70 68 66 64 64 63 63 62 62 62 58 52 52 54 58 68
60 61 61 61 61 62 61 61 61 61 61 60 61 62 62 62 62 62 62 62 63 63 64 65 66 66 66 67 67 67 67 68 68 67 67 67 67 67 67 67 67 67 67 68 69 69 68 68 66 64 63 63 63 64 64 64 62 59 52 51 52 56 64
58 58 59 61 62 61 59 59 60 60 60 61 60 60 61 61 61 61 60 60 60 62 64 65 65 65 65 65 65 66 67 67 67 66 66 66 66 65 65 66 66 66 66 66 67 67 64 64 64 63 62 63 63 63 62 63 63 61 55 52 51 51 56
56 57 58 58 58 59 58 57 57 58 59 60 61 60 59 59 59 59 59 59 60 62 64 64 65 64 64 64 65 66 65 65 65 65 65 65 65 64 64 64 64 64 64 64 63 63 62 62 62 62 61 60 60 60 60 61 62 61 60 55 52 51 52
55 56 56 56 57 57 57 56 56 57 57 58 59 59 60 58 58 59 58 59 61 62 62 62 63 63 63 64 62 63 62 61 61 60 60 62 62 62 62 63 64 64 63 62 62 62 62 62 62 61 60 59 59 59 59 59 60 60 59 59 54 52 52
54 55 55 56 56 57 56 55 55 55 55 56 57 57 58 58 58 59 58 59 62 61 61 62 63 61 61 60 61 60 59 58 57 57 57 57 58 60 61 61 62 61 62 63 62 62 61 61 62 61 60 58 56 57 57 57 57 57 58 57 57 54 52
54 54 54 55 55 55 54 54 54 55 55 55 56 56 58 56 56 57 57 59 61 62 62 62 62 61 59 59 57 56 55 53 52 52 53 54 55 58 58 60 61 61 61 61 60 60 60 62 62 61 57 57 55 56 55 54 55 53 54 56 56 56 55
53 54 54 54 56 55 54 54 54 55 55 55 55 55 56 56 56 58 59 61 60 61 60 60 61 61 58 57 56 56 55 53 52 51 52 52 52 53 55 57 57 59 60 60 61 61 61 61 61 59 56 53 54 55 54 54 52 52 53 53 53 53 53
53 53 53 54 55 55 54 54 54 54 55 55 55 56 56 55 55 56 57 58 60 60 60 61 59 57 57 57 59 60 58 58 58 53 50 51 51 50 51 52 54 55 55 54 54 59 61 61 61 59 54 55 55 55 54 53 53 53 52 51 52 51 50
53 53 53 54 56 56 54 55 55 55 55 54 54 55 55 56 56 56 56 57 58 60 60 61 61 60 59 60 60 59 57 53 51 50 50 50 50 50 49 50 51 53 53 53 52 53 55 58 57 56 54 54 54 54 54 52 51 52 50 51 47 47 48
53 54 54 55 55 55 56 57 56 55 55 54 55 56 55 55 55 55 55 56 57 59 60 60 58 57 56 56 55 54 53 52 51 51 51 49 50 50 50 49 46 47 51 51 52 48 45 50 54 54 52 51 51 53 51 49 52 46 41 40 40 41 41
53 54 54 55 54 54 55 56 57 56 56 55 57 56 56 55 54 55 56 56 56 57 58 58 58 57 57 57 56 55 53 50 49 50 51 50 50 51 51 49 50 43 43 48 47 44 40 40 40 45 49 55 50 51 47 46 42 40 39 39 39 39 39
54 55 55 55 55 56 55 56 56 56 56 56 57 55 56 56 55 56 56 56 56 56 57 57 58 57 57 58 58 57 55 53 53 52 51 51 51 51 51 50 49 49 45 42 43 43 40 40 40 40 40 41 47 54 51 47 41 39 38 38 38 38 41

ECMWFFLT1_sfc_dewp_123.txt.gz
Dewpoint
62 61 58 58 59 59 61 63 65 65 66 66 66 66 66 67 68 70 70 71 72 72 73 74 74 74 73 73 73 73 73 73 72 72 72 73 72 73 73 72 72 74 72 71 72 73 74 75 75 75 75 75 75 75 76 76 76 74 76 77 77 76 76
61 61 60 58 59 61 63 64 65 66 66 66 66 67 67 67 69 69 70 71 72 72 72 73 74 74 73 73 73 74 73 73 73 73 72 74 75 75 73 73 73 74 75 73 73 75 75 74 75 74 75 75 75 76 75 76 76 76 75 76 76 76 76
61 62 61 60 59 61 63 64 65 65 65 65 66 66 66 69 70 70 71 71 72 72 72 72 74 73 73 74 73 74 73 73 73 72 72 70 73 72 73 74 74 73 72 73 75 74 74 73 75 76 75 74 73 75 76 76 76 75 76 77 76 74 76
62 64 64 62 62 63 64 65 65 65 65 65 66 66 67 69 70 70 71 71 71 71 71 71 72 71 72 73 73 73 73 73 73 71 70 70 71 72 74 75 74 73 73 73 73 73 72 74 74 75 76 75 75 75 75 75 74 75 75 77 75 75 76
62 62 64 62 61 62 64 64 65 66 65 64 66 68 68 69 69 70 71 71 71 71 70 70 70 71 72 72 71 71 72 72 73 72 72 71 73 73 73 71 72 72 72 72 74 75 76 75 73 74 75 76 75 75 75 75 74 76 76 76 75 75 74
63 62 63 63 61 63 63 64 66 66 66 65 66 67 67 67 69 68 69 71 71 70 70 72 70 71 72 71 70 70 72 73 74 74 73 73 73 72 72 72 71 72 71 72 73 73 74 74 73 73 73 72 72 71 72 73 72 73 74 76 75 74 73
60 61 64 64 62 62 63 65 65 66 66 65 66 67 67 67 68 68 68 68 69 70 69 70 70 71 72 71 71 72 72 71 73 72 72 72 72 72 72 72 73 71 71 73 73 73 73 73 74 74 73 72 73 72 73 75 75 74 75 76 76 76 76
61 61 63 64 63 60 61 64 65 66 67 67 66 67 68 68 68 69 69 68 68 68 69 69 69 71 72 72 72 71 71 70 71 72 73 72 72 72 71 72 73 73 73 72 73 73 72 73 72 73 73 73 73 74 73 75 76 74 74 75 75 75 72
63 62 61 64 65 61 61 63 65 65 67 67 68 68 68 68 69 69 70 70 71 71 71 70 69 70 72 72 72 72 71 70 71 72 72 71 71 71 70 71 72 73 73 71 71 73 73 72 72 74 75 74 73 75 74 75 74 74 75 75 75 75 72
61 62 64 65 67 67 64 65 66 67 67 68 68 69 69 69 71 70 71 71 72 72 72 71 71 72 73 73 72 71 71 72 72 71 71 71 71 71 71 71 71 73 72 71 71 71 74 74 73 74 76 74 74 75 75 75 74 74 74 75 75 74 75
64 65 65 66 67 67 65 65 65 67 68 69 69 69 69 70 70 70 70 71 71 72 73 73 73 73 73 73 73 72 71 71 71 71 71 71 70 71 71 71 71 72 72 71 71 71 72 74 74 75 75 73 73 74 75 74 74 75 73 73 73 74 73
65 66 67 68 68 67 67 67 67 68 68 69 69 70 69 69 70 71 71 72 71 71 73 73 73 74 74 73 72 73 73 72 72 71 71 71 71 71 71 71 71 71 72 71 71 72 71 72 72 73 74 74 74 74 74 75 75 75 75 73 73 73 73
65 65 65 66 67 67 67 68 68 69 69 69 70 70 71 71 72 72 72 72 72 72 73 74 74 74 74 73 72 73 73 73 74 74 72 72 72 71 71 71 70 70 70 71 71 71 70 70 72 73 73 74 74 73 74 75 74 75 76 74 74 73 73
65 65 65 66 67 67 67 67 68 69 69 69 69 69 69 71 71 71 72 71 72 73 73 73 75 74 74 73 73 73 73 73 74 74 74 73 74 73 72 71 71 71 72 72 72 71 70 69 70 71 72 73 73 74 74 75 74 75 76 75 74 74 73
64 64 65 65 66 67 67 67 67 68 69 69 69 69 69 70 71 72 72 71 71 71 72 74 73 73 74 74 74 74 75 75 75 74 74 74 74 73 73 73 73 73 74 74 73 71 71 71 70 70 71 72 73 73 73 72 73 73 74 74 74 74 73
64 64 65 65 65 66 67 67 67 67 68 69 69 70 69 69 69 70 71 71 71 71 72 73 73 72 72 74 74 75 75 75 75 74 74 74 74 74 74 74 73 73 73 73 73 73 73 73 73 72 71 72 73 73 72 72 72 75 74 75 74 75 72
63 64 64 65 65 65 67 67 67 67 68 68 69 69 70 70 70 70 71 72 72 71 72 72 71 72 72 71 71 74 74 75 75 74 74 74 75 76 75 74 73 73 73 73 73 73 75 73 73 72 71 71 72 72 72 71 71 75 70 70 72 75 74
63 63 64 64 65 65 65 66 66 66 67 68 69 69 69 70 70 70 70 71 71 72 73 73 72 72 71 71 73 74 74 74 74 74 74 74 74 75 75 75 74 74 74 72 72 74 72 72 72 73 72 71 71 71 71 71 74 69 68 68 68 73 73
63 63 64 64 64 65 65 66 66 67 67 67 68 69 70 70 70 70 70 71 72 73 72 72 72 71 71 71 73 73 72 72 71 73 73 73 74 74 74 74 74 74 73 73 73 74 74 74 72 72 73 71 72 71 70 70 71 68 68 68 68 68 73
63 63 64 64 65 65 65 66 66 66 67 68 69 69 69 70 70 71 71 72 72 72 71 71 70 70 70 70 70 71 70 70 71 72 72 72 73 74 74 74 74 74 74 73 74 73 73 72 72 72 73 72 72 73 71 71 65 64 65 65 65 66 70
63 64 64 64 65 65 66 66 66 67 67 67 68 68 69 69 70 70 71 71 70 70 70 70 69 69 69 69 70 70 71 71 71 71 71 72 73 73 74 74 74 73 73 74 74 73 73 72 72 72 72 71 71 71 70 62 59 61 61 62 62 64 69
64 64 64 64 64 64 65 65 66 66 66 67 67 68 69 69 69 69 69 70 71 70 70 69 69 68 69 69 69 69 69 69 70 70 70 71 71 72 72 72 72 72 73 74 74 74 74 74 73 72 71 72 71 70 68 62 57 58 59 60 61 64 69
63 63 64 64 64 64 64 64 64 65 65 66 66 66 66 67 69 69 69 69 69 70 69 69 68 69 68 69 69 69 69 69 69 69 69 69 69 70 70 70 70 72 72 72 72 72 73 73 72 73 73 72 72 71 69 65 59 56 57 58 60 64 71
63 63 63 63 63 63 63 63 63 63 63 64 64 65 66 67 67 68 68 68 69 68 68 69 68 68 68 68 68 68 69 69 69 68 69 69 68 68 69 70 70 70 71 72 72 72 73 73 72 72 71 71 71 69 68 65 60 55 55 56 58 66 70
62 63 63 63 63 62 62 62 63 63 63 63 63 64 65 65 65 64 65 66 67 67 67 67 68 68 68 68 69 69 69 69 68 68 68 69 69 69 69 70 71 71 71 72 72 71 71 71 70 70 70 70 69 68 68 66 63 54 54 54 57 66 71
62 62 61 59 58 60 62 62 61 61 61 61 62 62 63 63 64 64 63 64 65 66 66 67 67 68 68 69 69 69 69 69 68 68 67 67 67 68 69 70 71 71 71 71 71 71 71 72 70 68 67 67 67 67 67 66 64 59 52 53 55 59 71
61 61 60 58 59 60 58 58 58 58 59 60 61 61 61 61 62 62 63 65 65 64 65 66 67 67 67 67 68 67 67 67 67 66 67 67 67 68 68 68 68 68 68 68 70 70 70 70 68 66 66 66 66 66 66 65 65 61 52 52 52 55 63
58 58 57 59 60 59 56 54 56 57 58 59 58 59 59 60 61 61 62 62 64 65 66 66 66 67 66 66 66 66 67 66 66 66 66 66 66 66 66 66 67 67 66 67 67 65 65 65 65 64 64 63 63 63 64 64 63 63 55 52 51 52 55
57 57 57 57 56 55 55 55 53 53 54 55 56 57 57 58 59 60 61 62 63 65 65 66 66 65 65 65 65 64 63 63 63 64 65 64 65 64 64 65 65 65 65 64 64 64 63 63 63 62 61 60 60 60 60 61 63 60 61 54 51 50 52
58 58 56 56 56 56 55 55 55 55 55 56 58 59 59 59 59 60 61 63 65 64 61 61 64 65 64 64 62 62 62 62 62 62 62 63 64 64 64 64 64 65 65 64 64 63 62 62 62 61 60 59 58 58 59 59 61 59 58 58 53 51 51
58 57 57 57 56 58 56 55 55 54 54 55 57 59 61 60 60 61 61 63 65 64 61 59 61 63 62 61 61 60 60 60 60 61 62 62 63 63 63 63 63 63 63 63 63 63 62 62 62 60 59 59 58 58 58 59 59 59 58 57 57 54 52
57 57 56 56 57 56 55 54 55 54 54 54 55 56 59 58 59 61 62 63 64 65 64 63 64 63 61 61 61 60 59 58 58 59 60 60 60 61 62 62 63 63 63 63 63 63 63 61 60 59 59 58 58 58 58 58 58 58 58 57 56 57 55
58 58 57 57 57 57 55 53 52 53 53 54 55 55 55 57 57 60 63 63 61 62 64 64 63 62 61 60 60 60 59 57 55 54 54 56 58 58 58 59 59 60 62 62 63 63 63 63 61 59 56 54 55 57 59 58 58 57 57 56 55 54 55
57 56 58 59 59 59 57 56 54 54 54 56 57 57 55 54 55 58 61 60 60 61 63 62 61 60 60 59 59 59 59 59 59 55 52 52 52 52 54 56 57 56 56 57 58 61 59 58 57 56 55 58 59 60 60 61 57 54 52 53 51 52 52
58 58 59 58 60 60 59 58 56 57 56 57 57 57 57 58 57 56 59 60 62 65 63 62 63 62 60 59 57 56 58 55 54 53 53 52 52 51 51 52 54 56 55 54 54 56 57 58 56 54 52 53 55 55 52 52 50 52 46 51 44 48 51
57 57 58 58 59 59 59 59 58 58 58 59 59 58 57 56 57 58 56 59 61 62 63 63 61 59 57 56 53 53 53 52 52 54 54 52 52 51 50 49 45 48 53 51 51 48 45 49 54 53 52 50 50 53 49 47 52 44 40 39 39 40 41
58 58 58 58 57 58 58 58 59 58 58 59 59 58 58 57 56 58 57 59 59 58 61 62 60 59 57 55 52 53 52 51 52 54 55 54 53 53 51 49 50 42 44 49 48 44 41 41 42 44 47 55 51 52 47 46 41 38 38 38 39 40 41
59 59 59 59 58 59 58 59 59 59 59 59 59 58 58 56 57 60 55 58 58 60 61 60 60 59 58 57 56 57 57 55 55 55 54 55 55 56 55 52 51 51 44 42 45 43 40 40 40 40 41 41 45 53 55 48 43 38 38 38 40 42 42